User: anonymous   Login
Location: Brno
(49.2000°N, 16.6330°E)
Time: 04:54:50
(UTC+02:00)
Language:

CARTOSAT-1 - Orbit

View from above orbital plane
View from above orbital plane
View from above satellite
View from above satellite

Ground track
Ground track

The orbit data is extracted from the following two-line orbital elements,

1 28649U 05017A   16205.79960478  .00000273  00000-0  39758-4 0  9994
2 28649  97.8972 278.6672 0003261  55.6356 304.5180 14.83439740607291
Epoch (UTC): 23 July 2016 19:11:25
Eccentricity: 0.0003261
inclination: 97.8972°
perigee height: 616 km
apogee height: 621 km
right ascension of ascending node: 278.6672°
argument of perigee: 55.6356°
revolutions per day: 14.83439740
mean anomaly at epoch: 304.5180°
orbit number at epoch: 60729

The dashed part of the orbit path shows where the satellite is in the earth's shadow,  

DLR